Weather History for KOJC - May, 2011

Change the Weather History Date:

Friday, May 27, 2011

  Actual Average Record
Temperature  
Mean Temperature 56 °F 68 °F  
Max Temperature 61 °F 78 °F 90 °F (2006)
Min Temperature 50 °F 59 °F 43 °F (1961)
Degree Days  
Heating Degree Days 9 1  
Month to date heating degree days 157 89  
Since 1 July heating degree days 5139 4920  
Cooling Degree Days 0 5  
Month to date cooling degree days 73 65  
Year to date cooling degree days 98 83  
Growing Degree Days 6 (Base 50)    
Moisture  
Dew Point 52 °F    
Average Humidity 87    
Maximum Humidity 96    
Minimum Humidity 77    
Precipitation  
Precipitation 0.05 in 0.17 in 2.20 in (1964)
Month to date precipitation 5.54 4.74  
Year to date precipitation 12.55 14.05  
Sea Level Pressure  
Sea Level Pressure 29.84 in    
Wind  
Wind Speed 7 mph (SE)    
Max Wind Speed 18 mph    
Max Gust Speed 24 mph    
Visibility 10 miles    
Events Rain , Thunderstorm    
T = Trace of Precipitation, MM = Missing Value Source: NWS Daily Summary

Daily Weather History Graph

Daily Weather History Graph

Search for Another Location

Airport or City:

Trip Planner

Search our weather history database for the weather conditions in past years. The results will help you decide how hot, cold, wet, or windy it might be!

Date:

Astronomy

May. 27, 2011 Rise Set
Actual Time 5:58 AM CDT 8:34 PM CDT
Civil Twilight 5:27 AM CDT 9:05 PM CDT
Nautical Twilight 4:48 AM CDT 9:44 PM CDT
Astronomical Twilight 4:05 AM CDT 10:27 PM CDT
Moon 2:45 AM CDT (5/27) 3:54 PM CDT (5/27)
Length of Visible Light 15h 38m
Length of Day
14h 36m
Waning Crescent, 24% of the Moon is Illuminated
May 27
Waning Crescent
Jun 1
New
Jun 8
First Quarter
Jun 15
Full
Jun 23
Last Quarter

Hourly Weather History & Observations

Time (CDT) Temp. Dew Point Humidity Pressure Visibility Wind Dir Wind Speed Gust Speed Precip Events Conditions
12:53 AM 55.0 °F 48.9 °F 80% 29.95 in 10.0 mi SE 5.8 mph - N/A   Clear
1:53 AM 54.0 °F 50.0 °F 86% 29.95 in 10.0 mi SE 5.8 mph - N/A   Clear
2:53 AM 52.0 °F 50.0 °F 93% 29.93 in 10.0 mi SE 3.5 mph - N/A   Clear
3:53 AM 52.0 °F 50.0 °F 93% 29.91 in 10.0 mi SE 6.9 mph - N/A   Clear
4:53 AM 52.0 °F 48.9 °F 89% 29.90 in 10.0 mi SE 8.1 mph - N/A   Clear
5:53 AM 51.1 °F 48.9 °F 92% 29.89 in 10.0 mi SSE 9.2 mph - N/A   Clear
6:53 AM 52.0 °F 48.9 °F 89% 29.89 in 10.0 mi SE 8.1 mph - N/A   Clear
7:53 AM 55.0 °F 50.0 °F 83% 29.88 in 10.0 mi SSE 12.7 mph 18.4 mph N/A   Clear
8:53 AM 55.9 °F 50.0 °F 80% 29.88 in 10.0 mi SE 12.7 mph 19.6 mph N/A   Partly Cloudy
9:42 AM 57.2 °F 51.8 °F 82% 29.89 in 10.0 mi SSE 13.8 mph - N/A   Mostly Cloudy
9:53 AM 57.9 °F 51.1 °F 78% 29.85 in 10.0 mi SE 12.7 mph 21.9 mph N/A   Mostly Cloudy
10:48 AM 57.2 °F 51.8 °F 82% 29.86 in 10.0 mi SE 10.4 mph - N/A   Scattered Clouds
10:53 AM 57.9 °F 52.0 °F 81% 29.84 in 10.0 mi East 11.5 mph - 0.00 in Rain Light Rain
11:49 AM 57.2 °F 51.8 °F 82% 29.83 in 10.0 mi East 6.9 mph - 0.01 in Rain Light Rain
11:53 AM 57.0 °F 53.1 °F 87% 29.84 in 10.0 mi East 3.5 mph - 0.01 in Rain Light Rain
12:27 PM 57.2 °F 53.6 °F 88% 29.85 in 9.0 mi SE 6.9 mph - 0.03 in Rain , Thunderstorm Light Rain
12:37 PM 57.2 °F 53.6 °F 88% 29.85 in 10.0 mi ESE 8.1 mph - 0.03 in   Mostly Cloudy
12:53 PM 57.9 °F 53.1 °F 84% 29.83 in 10.0 mi East 9.2 mph - 0.03 in Rain Light Rain
1:53 PM 57.9 °F 52.0 °F 81% 29.78 in 10.0 mi ESE 10.4 mph - 0.00 in   Overcast
2:53 PM 59.0 °F 54.0 °F 83% 29.77 in 10.0 mi ESE 10.4 mph - 0.00 in   Overcast
3:53 PM 60.1 °F 53.1 °F 78% 29.77 in 10.0 mi ESE 10.4 mph - N/A   Overcast
4:53 PM 60.1 °F 54.0 °F 80% 29.76 in 10.0 mi ESE 8.1 mph - N/A   Overcast
5:53 PM 60.1 °F 55.0 °F 83% 29.75 in 10.0 mi SE 9.2 mph - N/A   Overcast
6:53 PM 61.0 °F 55.0 °F 81% 29.76 in 10.0 mi SE 4.6 mph - N/A   Overcast
7:53 PM 61.0 °F 55.9 °F 83% 29.76 in 10.0 mi East 4.6 mph - N/A   Overcast
8:53 PM 57.9 °F 55.9 °F 93% 29.75 in 9.0 mi ESE 4.6 mph - N/A   Partly Cloudy
9:53 PM 57.9 °F 55.0 °F 90% 29.76 in 8.0 mi Calm Calm - N/A   Clear
10:53 PM 55.9 °F 54.0 °F 93% 29.77 in 6.0 mi ENE 3.5 mph - N/A   Clear
11:53 PM 57.0 °F 55.0 °F 93% 29.78 in 6.0 mi Calm Calm - N/A   Clear